UAL1455 MYNN-KIAH

Flight info

Callsign UAL1455
Flight time 2h 41m
Altitude 38000
Route DCT PEACH Y421 OCTAL Y280 LEV LINKK1
Aircraft A320/M-VGDW/C

Departure

Time 2026-05-06 23:31
Airport Lynden Pindling International Airport (MYNN)

Arrival

Time 2026-05-07 02:12
Airport George Bush Intercontinental Airport (KIAH)
Time Latitude Longitude Altitude Speed Heading
2026-05-06 22:49 25.04926 -77.46743 17 ft 0 kts 147°
2026-05-06 23:24 25.04943 -77.46756 19 ft 4 kts 137°
2026-05-06 23:24 25.04961 -77.46778 19 ft 4 kts 139°
2026-05-06 23:24 25.04972 -77.46791 20 ft 3 kts 238°
2026-05-06 23:25 25.04973 -77.46790 19 ft 0 kts 245°
2026-05-06 23:27 25.04966 -77.46805 17 ft 10 kts 245°
2026-05-06 23:28 25.04927 -77.46898 17 ft 15 kts 245°
2026-05-06 23:28 25.04910 -77.47007 19 ft 16 kts 301°
2026-05-06 23:28 25.04990 -77.47101 19 ft 18 kts 314°
2026-05-06 23:28 25.05083 -77.47205 20 ft 20 kts 314°
2026-05-06 23:29 25.05190 -77.47319 19 ft 22 kts 315°
2026-05-06 23:29 25.05208 -77.47474 22 ft 21 kts 253°
2026-05-06 23:29 25.05158 -77.47534 21 ft 9 kts 181°
2026-05-06 23:29 25.05115 -77.47494 21 ft 6 kts 135°
2026-05-06 23:30 25.05076 -77.47452 19 ft 13 kts 134°
2026-05-06 23:30 25.04850 -77.47195 19 ft 81 kts 135°
2026-05-06 23:30 25.04308 -77.46596 19 ft 136 kts 134°
2026-05-06 23:30 25.03530 -77.45737 33 ft 178 kts 134°
2026-05-06 23:31 25.02647 -77.44796 660 ft 176 kts 132°
2026-05-06 23:31 25.01877 -77.43750 1340 ft 176 kts 118°
2026-05-06 23:31 25.01598 -77.42458 1990 ft 176 kts 84°
2026-05-06 23:31 25.02058 -77.41206 2489 ft 181 kts 47°
2026-05-06 23:32 25.03125 -77.40482 2985 ft 185 kts 10°
2026-05-06 23:32 25.04408 -77.40604 3437 ft 193 kts 332°
2026-05-06 23:32 25.05504 -77.41508 3879 ft 204 kts 317°
2026-05-06 23:32 25.06622 -77.42586 4294 ft 225 kts 318°
2026-05-06 23:33 25.07863 -77.43779 4696 ft 249 kts 317°
2026-05-06 23:33 25.09220 -77.45081 5105 ft 263 kts 317°
2026-05-06 23:33 25.10621 -77.46421 5716 ft 269 kts 317°
2026-05-06 23:33 25.12042 -77.47772 6334 ft 270 kts 317°
2026-05-06 23:34 25.13471 -77.49129 6926 ft 272 kts 317°
2026-05-06 23:34 25.14916 -77.50502 7518 ft 274 kts 317°
2026-05-06 23:34 25.16348 -77.51865 8118 ft 277 kts 317°
2026-05-06 23:34 25.17825 -77.53274 8772 ft 277 kts 317°
2026-05-06 23:35 25.19278 -77.54661 9518 ft 281 kts 317°
2026-05-06 23:35 25.20768 -77.56079 10256 ft 284 kts 318°
2026-05-06 23:35 25.22266 -77.57507 10950 ft 287 kts 318°
2026-05-06 23:35 25.23794 -77.58964 11671 ft 290 kts 319°
2026-05-06 23:36 25.25335 -77.60432 12350 ft 297 kts 319°
2026-05-06 23:36 25.26929 -77.61953 12845 ft 309 kts 319°
2026-05-06 23:36 25.28580 -77.63532 13356 ft 319 kts 319°
2026-05-06 23:36 25.30289 -77.65166 13863 ft 330 kts 319°
2026-05-06 23:37 25.32047 -77.66846 14319 ft 339 kts 319°
2026-05-06 23:37 25.33854 -77.68573 14775 ft 348 kts 319°
2026-05-06 23:37 25.35710 -77.70348 15250 ft 357 kts 319°
2026-05-06 23:37 25.37607 -77.72165 15725 ft 365 kts 319°
2026-05-06 23:38 25.39537 -77.74016 16208 ft 369 kts 319°
2026-05-06 23:38 25.41479 -77.75888 16696 ft 371 kts 317°
2026-05-06 23:38 25.43242 -77.77986 17191 ft 374 kts 309°
2026-05-06 23:38 25.44682 -77.80349 17686 ft 377 kts 303°
2026-05-06 23:39 25.46060 -77.82839 18207 ft 379 kts 303°
2026-05-06 23:39 25.47443 -77.85332 18667 ft 381 kts 303°
2026-05-06 23:39 25.48833 -77.87836 19116 ft 383 kts 303°
2026-05-06 23:39 25.50229 -77.90349 19568 ft 384 kts 303°
2026-05-06 23:40 25.51633 -77.92877 20030 ft 386 kts 303°
2026-05-06 23:40 25.53043 -77.95410 20501 ft 388 kts 303°
2026-05-06 23:40 25.54460 -77.97957 20978 ft 389 kts 303°
2026-05-06 23:40 25.55882 -78.00517 21498 ft 390 kts 303°
2026-05-06 23:41 25.57307 -78.03083 22116 ft 390 kts 303°
2026-05-06 23:41 25.58726 -78.05642 22741 ft 389 kts 303°
2026-05-06 23:41 25.60140 -78.08195 23381 ft 388 kts 303°
2026-05-06 23:41 25.61556 -78.10752 23858 ft 391 kts 303°
2026-05-06 23:42 25.62984 -78.13325 24300 ft 393 kts 303°
2026-05-06 23:42 25.64415 -78.15911 24745 ft 394 kts 302°
2026-05-06 23:42 25.65848 -78.18512 25199 ft 395 kts 302°
2026-05-06 23:42 25.67283 -78.21113 25654 ft 396 kts 302°
2026-05-06 23:43 25.68701 -78.23685 26115 ft 396 kts 302°
2026-05-06 23:43 25.70136 -78.26285 26588 ft 396 kts 302°
2026-05-06 23:43 25.71571 -78.28887 27072 ft 395 kts 302°
2026-05-06 23:43 25.73002 -78.31481 27563 ft 394 kts 302°
2026-05-06 23:44 25.74431 -78.34072 28055 ft 392 kts 302°
2026-05-06 23:44 25.75847 -78.36646 28571 ft 390 kts 302°
2026-05-06 23:44 25.77261 -78.39218 29086 ft 389 kts 302°
2026-05-06 23:44 25.78668 -78.41780 29499 ft 390 kts 302°
2026-05-06 23:45 25.80079 -78.44354 29910 ft 391 kts 302°
2026-05-06 23:45 25.81495 -78.46938 30291 ft 392 kts 302°
2026-05-06 23:45 25.82915 -78.49521 30634 ft 393 kts 302°
2026-05-06 23:45 25.84342 -78.52115 30985 ft 394 kts 302°
2026-05-06 23:46 25.85773 -78.54717 31339 ft 395 kts 302°
2026-05-06 23:46 25.87206 -78.57327 31694 ft 396 kts 302°
2026-05-06 23:46 25.88620 -78.59906 32051 ft 397 kts 302°
2026-05-06 23:46 25.90053 -78.62525 32415 ft 397 kts 302°
2026-05-06 23:47 25.91443 -78.65188 32791 ft 398 kts 297°
2026-05-06 23:47 25.92447 -78.68063 33166 ft 401 kts 288°
2026-05-06 23:47 25.92972 -78.71121 33555 ft 405 kts 278°
2026-05-06 23:47 25.93039 -78.74263 33945 ft 407 kts 274°
2026-05-06 23:48 25.93021 -78.77406 34299 ft 406 kts 274°
2026-05-06 23:48 25.93005 -78.80538 34636 ft 405 kts 274°
2026-05-06 23:48 25.92992 -78.83663 34987 ft 404 kts 274°
2026-05-06 23:48 25.92983 -78.86789 35333 ft 402 kts 274°
2026-05-06 23:49 25.92973 -78.89848 35685 ft 400 kts 274°
2026-05-06 23:49 25.92960 -78.92932 36049 ft 398 kts 274°
2026-05-06 23:49 25.92945 -78.95995 36414 ft 395 kts 274°
2026-05-06 23:49 25.92929 -78.99040 36778 ft 393 kts 274°
2026-05-06 23:50 25.92913 -79.02060 37157 ft 389 kts 274°
2026-05-06 23:50 25.92875 -79.08024 37935 ft 382 kts 274°
2026-05-06 23:50 25.92858 -79.10981 38066 ft 385 kts 274°
2026-05-06 23:51 25.92828 -79.17006 38085 ft 395 kts 274°
2026-05-06 23:51 25.92788 -79.23193 38083 ft 406 kts 274°
2026-05-06 23:52 25.92745 -79.29532 38080 ft 415 kts 274°
2026-05-06 23:52 25.92698 -79.36002 38082 ft 422 kts 274°
2026-05-06 23:53 25.92639 -79.42530 38082 ft 423 kts 274°
2026-05-06 23:53 25.92578 -79.49065 38082 ft 423 kts 273°
2026-05-06 23:54 25.92517 -79.55578 38079 ft 423 kts 273°
2026-05-06 23:54 25.92458 -79.62123 38073 ft 424 kts 273°
2026-05-06 23:55 25.92399 -79.68646 38077 ft 424 kts 273°
2026-05-06 23:55 25.92342 -79.75245 38076 ft 424 kts 276°
2026-05-06 23:56 25.93568 -79.81533 38076 ft 416 kts 295°
2026-05-06 23:56 25.96440 -79.87024 38073 ft 415 kts 302°
2026-05-06 23:57 25.99529 -79.92522 38078 ft 416 kts 302°
2026-05-06 23:57 26.02570 -79.97942 38082 ft 416 kts 302°
2026-05-06 23:58 26.05628 -80.03418 38088 ft 416 kts 302°
2026-05-06 23:58 26.08683 -80.08897 38089 ft 417 kts 302°
2026-05-06 23:59 26.11745 -80.14380 38098 ft 417 kts 302°
2026-05-06 23:59 26.14810 -80.19869 38098 ft 417 kts 304°
2026-05-07 00:00 26.18393 -80.24958 38103 ft 418 kts 308°
2026-05-07 00:00 26.21423 -80.29153 38099 ft 418 kts 308°
2026-05-07 00:01 26.25652 -80.35024 38098 ft 418 kts 308°
2026-05-07 00:01 26.29290 -80.40087 38093 ft 418 kts 308°
2026-05-07 00:02 26.32925 -80.45155 38092 ft 419 kts 308°
2026-05-07 00:02 26.36575 -80.50237 38087 ft 419 kts 308°
2026-05-07 00:03 26.40218 -80.55320 38088 ft 419 kts 308°
2026-05-07 00:03 26.43851 -80.60405 38085 ft 419 kts 308°
2026-05-07 00:04 26.47490 -80.65487 38087 ft 419 kts 308°
2026-05-07 00:04 26.51133 -80.70577 38089 ft 419 kts 307°
2026-05-07 00:05 26.54765 -80.75680 38084 ft 420 kts 307°
2026-05-07 00:05 26.58368 -80.80753 38089 ft 420 kts 307°
2026-05-07 00:06 26.61998 -80.85860 38082 ft 420 kts 307°
2026-05-07 00:06 26.65632 -80.90969 38080 ft 420 kts 307°
2026-05-07 00:07 26.69262 -80.96073 38078 ft 420 kts 307°
2026-05-07 00:07 26.72899 -81.01204 38075 ft 420 kts 307°
2026-05-07 00:08 26.76527 -81.06333 38079 ft 420 kts 307°
2026-05-07 00:08 26.80155 -81.11467 38079 ft 420 kts 307°
2026-05-07 00:09 26.83754 -81.16555 38081 ft 420 kts 307°
2026-05-07 00:09 26.87382 -81.21686 38079 ft 420 kts 307°
2026-05-07 00:10 26.90999 -81.26820 38083 ft 420 kts 307°
2026-05-07 00:10 26.94614 -81.31960 38076 ft 420 kts 307°
2026-05-07 00:11 26.98206 -81.37124 38076 ft 419 kts 303°
2026-05-07 00:11 27.01346 -81.42623 38076 ft 418 kts 301°
2026-05-07 00:12 27.04444 -81.48102 38077 ft 418 kts 301°
2026-05-07 00:12 27.07550 -81.53625 38080 ft 418 kts 301°
2026-05-07 00:13 27.10664 -81.59143 38082 ft 418 kts 301°
2026-05-07 00:13 27.13778 -81.64664 38085 ft 418 kts 301°
2026-05-07 00:14 27.16886 -81.70189 38088 ft 418 kts 301°
2026-05-07 00:14 27.19995 -81.75726 38089 ft 418 kts 301°
2026-05-07 00:15 27.23097 -81.81259 38091 ft 418 kts 301°
2026-05-07 00:15 27.26182 -81.86762 38095 ft 418 kts 301°
2026-05-07 00:16 27.28798 -81.92582 38095 ft 417 kts 287°
2026-05-07 00:16 27.30050 -81.98946 38098 ft 417 kts 282°
2026-05-07 00:17 27.31044 -82.04253 38098 ft 417 kts 282°
2026-05-07 00:17 27.32443 -82.11674 38098 ft 417 kts 282°
2026-05-07 00:18 27.33638 -82.18062 38096 ft 418 kts 282°
2026-05-07 00:18 27.34821 -82.24451 38099 ft 418 kts 282°
2026-05-07 00:19 27.35804 -82.29774 38101 ft 418 kts 282°
2026-05-07 00:19 27.36996 -82.36209 38099 ft 418 kts 282°
2026-05-07 00:20 27.38177 -82.42566 38101 ft 418 kts 282°
2026-05-07 00:20 27.39350 -82.48977 38103 ft 418 kts 282°
2026-05-07 00:21 27.40512 -82.55385 38102 ft 418 kts 282°
2026-05-07 00:21 27.41703 -82.61776 38102 ft 418 kts 282°
2026-05-07 00:22 27.42908 -82.68172 38101 ft 418 kts 282°
2026-05-07 00:22 27.44102 -82.74566 38103 ft 418 kts 282°
2026-05-07 00:23 27.45302 -82.80971 38101 ft 418 kts 282°
2026-05-07 00:23 27.46488 -82.87377 38101 ft 418 kts 282°
2026-05-07 00:24 27.47661 -82.93749 38096 ft 418 kts 282°
2026-05-07 00:24 27.48836 -83.00146 38099 ft 418 kts 282°
2026-05-07 00:25 27.50023 -83.06572 38097 ft 418 kts 282°
2026-05-07 00:25 27.51204 -83.12984 38096 ft 418 kts 282°
2026-05-07 00:26 27.52372 -83.19396 38100 ft 418 kts 282°
2026-05-07 00:26 27.53536 -83.25805 38102 ft 418 kts 282°
2026-05-07 00:27 27.54702 -83.32215 38101 ft 417 kts 282°
2026-05-07 00:27 27.55861 -83.38594 38105 ft 417 kts 281°
2026-05-07 00:28 27.57014 -83.45003 38104 ft 417 kts 281°
2026-05-07 00:28 27.58167 -83.51414 38100 ft 417 kts 281°
2026-05-07 00:29 27.59323 -83.57833 38102 ft 417 kts 281°
2026-05-07 00:30 27.61621 -83.70659 38102 ft 417 kts 281°
2026-05-07 00:30 27.62775 -83.77074 38100 ft 417 kts 281°
2026-05-07 00:31 27.63922 -83.83493 38103 ft 417 kts 281°
2026-05-07 00:31 27.65060 -83.89909 38098 ft 417 kts 281°
2026-05-07 00:32 27.66174 -83.96287 38100 ft 417 kts 281°
2026-05-07 00:32 27.67304 -84.02707 38101 ft 417 kts 281°
2026-05-07 00:33 27.68430 -84.09121 38100 ft 417 kts 281°
2026-05-07 00:33 27.69567 -84.15528 38101 ft 417 kts 281°
2026-05-07 00:34 27.70700 -84.21940 38097 ft 417 kts 281°
2026-05-07 00:34 27.71806 -84.28361 38102 ft 417 kts 281°
2026-05-07 00:35 27.72912 -84.34776 38100 ft 416 kts 281°
2026-05-07 00:35 27.74020 -84.41194 38099 ft 417 kts 281°
2026-05-07 00:36 27.75144 -84.47611 38101 ft 416 kts 281°
2026-05-07 00:36 27.76262 -84.54023 38101 ft 416 kts 281°
2026-05-07 00:37 27.77361 -84.60442 38099 ft 416 kts 280°
2026-05-07 00:37 27.78447 -84.66819 38096 ft 416 kts 281°
2026-05-07 00:38 27.79545 -84.73242 38096 ft 416 kts 280°
2026-05-07 00:38 27.80634 -84.79667 38098 ft 416 kts 280°
2026-05-07 00:39 27.81723 -84.86091 38099 ft 416 kts 280°
2026-05-07 00:39 27.82812 -84.92512 38097 ft 415 kts 280°
2026-05-07 00:40 27.83886 -84.98874 38091 ft 415 kts 280°
2026-05-07 00:40 27.84966 -85.05283 38090 ft 415 kts 280°
2026-05-07 00:41 27.86041 -85.11675 38087 ft 414 kts 280°
2026-05-07 00:41 27.87115 -85.18072 38085 ft 414 kts 280°
2026-05-07 00:42 27.88190 -85.24463 38082 ft 414 kts 281°
2026-05-07 00:42 27.89895 -85.30688 38083 ft 415 kts 287°
2026-05-07 00:43 27.91765 -85.36860 38083 ft 415 kts 287°
2026-05-07 00:43 27.93631 -85.43035 38082 ft 415 kts 287°
2026-05-07 00:44 27.95495 -85.49182 38084 ft 415 kts 287°
2026-05-07 00:44 27.97362 -85.55363 38083 ft 416 kts 287°
2026-05-07 00:45 27.99223 -85.61564 38087 ft 416 kts 287°
2026-05-07 00:45 28.01079 -85.67766 38086 ft 415 kts 287°
2026-05-07 00:46 28.02938 -85.73954 38085 ft 415 kts 287°
2026-05-07 00:46 28.04796 -85.80144 38080 ft 415 kts 287°
2026-05-07 00:47 28.06648 -85.86347 38079 ft 415 kts 287°
2026-05-07 00:47 28.08477 -85.92503 38077 ft 415 kts 287°
2026-05-07 00:48 28.10322 -85.98703 38080 ft 416 kts 287°
2026-05-07 00:48 28.12168 -86.04908 38075 ft 416 kts 287°
2026-05-07 00:49 28.14012 -86.11114 38075 ft 416 kts 287°
2026-05-07 00:49 28.15852 -86.17330 38076 ft 416 kts 287°
2026-05-07 00:50 28.17685 -86.23542 38077 ft 416 kts 287°
2026-05-07 00:50 28.19502 -86.29717 38072 ft 415 kts 286°
2026-05-07 00:51 28.21330 -86.35938 38070 ft 416 kts 286°
2026-05-07 00:51 28.23158 -86.42156 38068 ft 416 kts 287°
2026-05-07 00:52 28.24984 -86.48371 38066 ft 415 kts 286°
2026-05-07 00:52 28.26808 -86.54591 38063 ft 415 kts 286°
2026-05-07 00:53 28.28628 -86.60806 38064 ft 415 kts 286°
2026-05-07 00:53 28.30445 -86.67032 38064 ft 415 kts 286°
2026-05-07 00:54 28.32237 -86.73217 38063 ft 416 kts 286°
2026-05-07 00:54 28.34062 -86.79450 38065 ft 416 kts 286°
2026-05-07 00:55 28.35886 -86.85670 38062 ft 415 kts 286°
2026-05-07 00:55 28.37710 -86.91896 38064 ft 415 kts 286°
2026-05-07 00:56 28.39531 -86.98128 38061 ft 415 kts 286°
2026-05-07 00:56 28.41341 -87.04348 38059 ft 415 kts 286°
2026-05-07 00:57 28.43145 -87.10576 38056 ft 415 kts 286°
2026-05-07 00:57 28.44948 -87.16804 38059 ft 415 kts 286°
2026-05-07 00:58 28.46743 -87.23027 38054 ft 414 kts 286°
2026-05-07 00:58 28.48541 -87.29258 38053 ft 414 kts 286°
2026-05-07 00:59 28.51234 -87.38587 38049 ft 414 kts 286°
2026-05-07 01:00 28.53022 -87.44816 38049 ft 414 kts 286°
2026-05-07 01:00 28.54794 -87.50998 38049 ft 414 kts 286°
2026-05-07 01:01 28.56574 -87.57230 38051 ft 414 kts 286°
2026-05-07 01:01 28.58354 -87.63460 38047 ft 414 kts 286°
2026-05-07 01:02 28.60131 -87.69688 38047 ft 414 kts 286°
2026-05-07 01:02 28.61904 -87.75919 38037 ft 413 kts 286°
2026-05-07 01:03 28.63675 -87.82138 38043 ft 413 kts 285°
2026-05-07 01:03 28.65434 -87.88367 38040 ft 413 kts 285°
2026-05-07 01:04 28.67193 -87.94582 38035 ft 412 kts 285°
2026-05-07 01:04 28.68653 -87.99746 38038 ft 412 kts 285°
2026-05-07 01:05 28.70686 -88.06985 38032 ft 412 kts 285°
2026-05-07 01:05 28.72435 -88.13196 38036 ft 411 kts 285°
2026-05-07 01:06 28.73887 -88.18351 38035 ft 411 kts 285°
2026-05-07 01:06 28.75622 -88.24563 38025 ft 411 kts 285°
2026-05-07 01:07 28.77356 -88.30769 38028 ft 411 kts 285°
2026-05-07 01:07 28.79375 -88.37984 38020 ft 411 kts 285°
2026-05-07 01:08 28.80820 -88.43184 38020 ft 410 kts 285°
2026-05-07 01:08 28.82529 -88.49352 38016 ft 410 kts 285°
2026-05-07 01:09 28.84248 -88.55545 38016 ft 410 kts 285°
2026-05-07 01:09 28.85974 -88.61766 38016 ft 410 kts 285°
2026-05-07 01:10 28.87686 -88.67973 38013 ft 410 kts 285°
2026-05-07 01:10 28.89277 -88.74224 38012 ft 409 kts 282°
2026-05-07 01:11 28.90592 -88.80545 38008 ft 409 kts 281°
2026-05-07 01:11 28.91860 -88.86859 38003 ft 409 kts 281°
2026-05-07 01:12 28.93183 -88.93189 38001 ft 409 kts 281°
2026-05-07 01:12 28.94519 -88.99466 38003 ft 409 kts 282°
2026-05-07 01:13 28.95866 -89.05786 38002 ft 410 kts 281°
2026-05-07 01:13 28.97202 -89.12116 38001 ft 410 kts 281°
2026-05-07 01:14 28.98534 -89.18444 37995 ft 410 kts 281°
2026-05-07 01:14 28.99866 -89.24779 37997 ft 410 kts 281°
2026-05-07 01:15 29.01191 -89.31118 37998 ft 410 kts 281°
2026-05-07 01:15 29.02516 -89.37459 37999 ft 410 kts 281°
2026-05-07 01:16 29.03837 -89.43808 37998 ft 411 kts 281°
2026-05-07 01:16 29.05164 -89.50164 37996 ft 411 kts 281°
2026-05-07 01:17 29.06481 -89.56513 37994 ft 411 kts 281°
2026-05-07 01:17 29.07789 -89.62826 37995 ft 411 kts 281°
2026-05-07 01:18 29.09101 -89.69188 38000 ft 411 kts 281°
2026-05-07 01:18 29.10410 -89.75553 37997 ft 411 kts 281°
2026-05-07 01:19 29.11714 -89.81912 37999 ft 411 kts 281°
2026-05-07 01:19 29.13018 -89.88290 37998 ft 411 kts 281°
2026-05-07 01:20 29.14322 -89.94655 37996 ft 411 kts 280°
2026-05-07 01:20 29.15616 -90.01025 37996 ft 411 kts 280°
2026-05-07 01:21 29.16908 -90.07397 37994 ft 411 kts 280°
2026-05-07 01:21 29.18082 -90.13757 37996 ft 410 kts 277°
2026-05-07 01:22 29.18900 -90.20212 37991 ft 410 kts 275°
2026-05-07 01:22 29.19627 -90.26680 37991 ft 410 kts 275°
2026-05-07 01:23 29.20408 -90.33148 37993 ft 410 kts 276°
2026-05-07 01:23 29.21238 -90.39611 37992 ft 410 kts 276°
2026-05-07 01:24 29.22061 -90.46060 37991 ft 410 kts 276°
2026-05-07 01:24 29.22870 -90.52499 37989 ft 410 kts 276°
2026-05-07 01:25 29.23673 -90.58970 37990 ft 410 kts 275°
2026-05-07 01:25 29.24480 -90.65449 37985 ft 410 kts 275°
2026-05-07 01:26 29.25286 -90.71913 37988 ft 410 kts 275°
2026-05-07 01:26 29.26088 -90.78389 37988 ft 410 kts 275°
2026-05-07 01:27 29.26890 -90.84862 37987 ft 410 kts 275°
2026-05-07 01:27 29.27684 -90.91336 37985 ft 410 kts 275°
2026-05-07 01:28 29.28471 -90.97814 37986 ft 410 kts 275°
2026-05-07 01:28 29.29257 -91.04288 37986 ft 410 kts 275°
2026-05-07 01:29 29.30037 -91.10718 37985 ft 410 kts 275°
2026-05-07 01:29 29.30825 -91.17190 37984 ft 410 kts 275°
2026-05-07 01:30 29.31601 -91.23672 37986 ft 410 kts 275°
2026-05-07 01:30 29.32376 -91.30140 37984 ft 410 kts 275°
2026-05-07 01:31 29.33147 -91.36612 37986 ft 410 kts 275°
2026-05-07 01:31 29.33922 -91.43090 37984 ft 410 kts 275°
2026-05-07 01:32 29.34686 -91.49562 37981 ft 410 kts 274°
2026-05-07 01:32 29.35440 -91.56033 37977 ft 410 kts 274°
2026-05-07 01:33 29.36191 -91.62466 37979 ft 409 kts 274°
2026-05-07 01:33 29.36947 -91.68939 37984 ft 409 kts 274°
2026-05-07 01:34 29.37700 -91.75405 37973 ft 409 kts 274°
2026-05-07 01:34 29.38445 -91.81862 37978 ft 409 kts 274°
2026-05-07 01:35 29.39192 -91.88329 37975 ft 409 kts 274°
2026-05-07 01:35 29.39932 -91.94786 37969 ft 408 kts 274°
2026-05-07 01:36 29.40664 -92.01242 37970 ft 408 kts 274°
2026-05-07 01:36 29.41394 -92.07694 37971 ft 408 kts 274°
2026-05-07 01:37 29.42125 -92.14143 37968 ft 408 kts 274°
2026-05-07 01:37 29.42854 -92.20588 37971 ft 407 kts 274°
2026-05-07 01:38 29.43578 -92.27034 37965 ft 407 kts 274°
2026-05-07 01:38 29.44296 -92.33481 37964 ft 407 kts 274°
2026-05-07 01:39 29.45012 -92.39929 37959 ft 407 kts 274°
2026-05-07 01:39 29.45712 -92.46332 37959 ft 406 kts 272°
2026-05-07 01:40 29.46126 -92.52793 37960 ft 405 kts 270°
2026-05-07 01:40 29.46349 -92.59238 37958 ft 404 kts 269°
2026-05-07 01:41 29.46592 -92.65690 37957 ft 404 kts 270°
2026-05-07 01:41 29.46878 -92.72091 37958 ft 404 kts 270°
2026-05-07 01:42 29.47183 -92.78531 37956 ft 404 kts 270°
2026-05-07 01:42 29.47481 -92.84965 37956 ft 403 kts 270°
2026-05-07 01:43 29.47767 -92.91400 37956 ft 403 kts 269°
2026-05-07 01:43 29.48048 -92.97824 37948 ft 403 kts 269°
2026-05-07 01:44 29.48327 -93.04255 37953 ft 402 kts 269°
2026-05-07 01:44 29.48601 -93.10625 37955 ft 402 kts 269°
2026-05-07 01:45 29.48860 -93.17035 37954 ft 402 kts 269°
2026-05-07 01:45 29.49109 -93.23434 37953 ft 401 kts 269°
2026-05-07 01:46 29.49358 -93.29831 37920 ft 401 kts 269°
2026-05-07 01:46 29.49484 -93.33042 37100 ft 404 kts 269°
2026-05-07 01:46 29.49608 -93.36265 36270 ft 405 kts 269°
2026-05-07 01:46 29.49733 -93.39495 35467 ft 405 kts 270°
2026-05-07 01:47 29.49857 -93.42731 34696 ft 405 kts 270°
2026-05-07 01:47 29.49981 -93.45965 33940 ft 405 kts 270°
2026-05-07 01:47 29.50102 -93.49202 33100 ft 406 kts 270°
2026-05-07 01:47 29.50223 -93.52432 32274 ft 405 kts 270°
2026-05-07 01:48 29.50345 -93.55660 31472 ft 405 kts 269°
2026-05-07 01:48 29.50468 -93.58889 30691 ft 404 kts 269°
2026-05-07 01:48 29.50587 -93.62104 29922 ft 403 kts 269°
2026-05-07 01:48 29.50702 -93.65318 29065 ft 402 kts 269°
2026-05-07 01:49 29.50816 -93.68506 28331 ft 398 kts 269°
2026-05-07 01:49 29.50930 -93.71633 27538 ft 385 kts 269°
2026-05-07 01:49 29.51041 -93.74659 26763 ft 372 kts 269°
2026-05-07 01:49 29.51146 -93.77571 26071 ft 359 kts 269°
2026-05-07 01:50 29.51244 -93.80355 25470 ft 350 kts 269°
2026-05-07 01:50 29.51341 -93.83124 24866 ft 344 kts 269°
2026-05-07 01:50 29.51436 -93.85846 24270 ft 338 kts 269°
2026-05-07 01:50 29.51529 -93.88553 23691 ft 332 kts 268°
2026-05-07 01:51 29.51616 -93.91147 23059 ft 327 kts 268°
2026-05-07 01:51 29.51703 -93.93730 22384 ft 321 kts 268°
2026-05-07 01:51 29.51788 -93.96268 21733 ft 315 kts 268°
2026-05-07 01:51 29.51873 -93.98763 21080 ft 310 kts 268°
2026-05-07 01:52 29.51959 -94.01220 20449 ft 306 kts 268°
2026-05-07 01:52 29.52046 -94.03642 19831 ft 302 kts 268°
2026-05-07 01:52 29.52132 -94.06036 19226 ft 298 kts 268°
2026-05-07 01:52 29.52215 -94.08402 18632 ft 295 kts 268°
2026-05-07 01:53 29.52294 -94.10744 18029 ft 292 kts 268°
2026-05-07 01:53 29.52371 -94.13063 17363 ft 289 kts 268°
2026-05-07 01:53 29.52447 -94.15363 16709 ft 287 kts 268°
2026-05-07 01:53 29.52523 -94.17647 16072 ft 285 kts 269°
2026-05-07 01:54 29.52572 -94.19157 15656 ft 285 kts 269°
2026-05-07 01:54 29.52645 -94.21425 15040 ft 283 kts 269°
2026-05-07 01:54 29.52717 -94.23681 14439 ft 282 kts 269°
2026-05-07 01:54 29.52790 -94.25926 13842 ft 281 kts 269°
2026-05-07 01:55 29.52867 -94.28168 13230 ft 280 kts 271°
2026-05-07 01:55 29.53372 -94.30313 13019 ft 284 kts 292°
2026-05-07 01:55 29.54442 -94.32262 12991 ft 291 kts 298°
2026-05-07 01:55 29.55566 -94.34202 12679 ft 291 kts 298°
2026-05-07 01:56 29.56694 -94.36132 12323 ft 291 kts 298°
2026-05-07 01:56 29.57824 -94.38063 11984 ft 291 kts 298°
2026-05-07 01:56 29.58951 -94.39986 11652 ft 289 kts 298°
2026-05-07 01:56 29.60069 -94.41906 11316 ft 288 kts 298°
2026-05-07 01:57 29.61167 -94.43802 10984 ft 288 kts 298°
2026-05-07 01:57 29.62277 -94.45716 10665 ft 288 kts 299°
2026-05-07 01:57 29.63386 -94.47627 10341 ft 287 kts 299°
2026-05-07 01:57 29.64499 -94.49541 10015 ft 287 kts 299°
2026-05-07 01:58 29.65606 -94.51447 9693 ft 287 kts 300°
2026-05-07 01:58 29.66714 -94.53357 9338 ft 286 kts 300°
2026-05-07 01:58 29.68024 -94.55059 9121 ft 288 kts 319°
2026-05-07 01:58 29.69718 -94.56335 9000 ft 292 kts 324°
2026-05-07 01:59 29.71442 -94.57584 8878 ft 292 kts 324°
2026-05-07 01:59 29.73162 -94.58823 8759 ft 291 kts 324°
2026-05-07 01:59 29.74879 -94.60059 8631 ft 290 kts 324°
2026-05-07 01:59 29.76585 -94.61292 8509 ft 290 kts 324°
2026-05-07 02:00 29.78269 -94.62511 8385 ft 282 kts 324°
2026-05-07 02:00 29.79903 -94.63692 8262 ft 272 kts 324°
2026-05-07 02:00 29.81486 -94.64838 8140 ft 266 kts 324°
2026-05-07 02:00 29.83043 -94.65970 8021 ft 264 kts 324°
2026-05-07 02:01 29.84595 -94.67103 7903 ft 263 kts 324°
2026-05-07 02:01 29.86139 -94.68230 7783 ft 263 kts 324°
2026-05-07 02:01 29.87683 -94.69351 7662 ft 262 kts 324°
2026-05-07 02:01 29.89225 -94.70470 7545 ft 262 kts 324°
2026-05-07 02:02 29.90763 -94.71588 7426 ft 261 kts 324°
2026-05-07 02:02 29.92297 -94.72704 7311 ft 261 kts 324°
2026-05-07 02:02 29.93812 -94.73805 7191 ft 260 kts 325°
2026-05-07 02:02 29.95345 -94.74916 7076 ft 260 kts 325°
2026-05-07 02:03 29.96733 -94.76178 6963 ft 249 kts 307°
2026-05-07 02:03 29.97518 -94.77871 6842 ft 235 kts 283°
2026-05-07 02:03 29.97706 -94.79705 6725 ft 229 kts 271°
2026-05-07 02:03 29.97790 -94.81537 6609 ft 228 kts 272°
2026-05-07 02:04 29.97878 -94.83360 6496 ft 228 kts 272°
2026-05-07 02:04 29.97968 -94.85189 6380 ft 228 kts 272°
2026-05-07 02:04 29.98059 -94.87014 6267 ft 228 kts 272°
2026-05-07 02:04 29.98149 -94.88845 6136 ft 228 kts 272°
2026-05-07 02:05 29.98237 -94.90667 6014 ft 227 kts 272°
2026-05-07 02:05 29.98328 -94.92485 5891 ft 227 kts 272°
2026-05-07 02:05 29.98419 -94.94310 5768 ft 227 kts 272°
2026-05-07 02:05 29.98509 -94.96123 5655 ft 227 kts 272°
2026-05-07 02:06 29.98599 -94.97949 5447 ft 229 kts 272°
2026-05-07 02:06 29.98688 -94.99779 5159 ft 228 kts 272°
2026-05-07 02:06 29.98776 -95.01604 4879 ft 227 kts 272°
2026-05-07 02:06 29.98864 -95.03393 4592 ft 226 kts 274°
2026-05-07 02:07 29.99143 -95.05198 4298 ft 225 kts 280°
2026-05-07 02:07 29.99337 -95.08751 3782 ft 219 kts 269°
2026-05-07 02:07 29.99336 -95.10431 3679 ft 205 kts 269°
2026-05-07 02:08 29.99337 -95.12053 3437 ft 198 kts 270°
2026-05-07 02:08 29.99338 -95.13622 3199 ft 193 kts 270°
2026-05-07 02:08 29.99339 -95.15127 2962 ft 184 kts 270°
2026-05-07 02:08 29.99340 -95.16581 2729 ft 179 kts 271°
2026-05-07 02:09 29.99341 -95.18009 2508 ft 179 kts 272°
2026-05-07 02:09 29.99342 -95.19446 2278 ft 177 kts 273°
2026-05-07 02:09 29.99342 -95.20813 2058 ft 166 kts 273°
2026-05-07 02:09 29.99342 -95.22105 1846 ft 158 kts 274°
2026-05-07 02:10 29.99342 -95.23343 1665 ft 150 kts 276°
2026-05-07 02:10 29.99343 -95.24532 1456 ft 146 kts 275°
2026-05-07 02:10 29.99344 -95.25699 1264 ft 145 kts 275°
2026-05-07 02:10 29.99345 -95.26838 1097 ft 143 kts 275°
2026-05-07 02:11 29.99330 -95.27979 942 ft 142 kts 273°
2026-05-07 02:11 29.99335 -95.29119 769 ft 142 kts 274°
2026-05-07 02:11 29.99320 -95.30259 546 ft 140 kts 274°
2026-05-07 02:11 29.99333 -95.31376 363 ft 139 kts 276°
2026-05-07 02:12 29.99339 -95.32487 167 ft 139 kts 275°
2026-05-07 02:12 29.99350 -95.33529 110 ft 113 kts 267°
2026-05-07 02:12 29.99345 -95.34476 107 ft 130 kts 269°
2026-05-07 02:12 29.99354 -95.35304 107 ft 47 kts 266°
2026-05-07 02:13 29.99333 -95.35451 106 ft 11 kts 242°
2026-05-07 02:13 29.99285 -95.35482 107 ft 5 kts 188°
2026-05-07 02:13 29.99224 -95.35484 107 ft 11 kts 181°
2026-05-07 02:13 29.99141 -95.35484 107 ft 13 kts 176°
2026-05-07 02:14 29.99088 -95.35408 107 ft 15 kts 92°
2026-05-07 02:14 29.99090 -95.35274 107 ft 18 kts 89°
2026-05-07 02:14 29.99092 -95.35115 107 ft 22 kts 88°
2026-05-07 02:14 29.99088 -95.34929 106 ft 25 kts 92°
2026-05-07 02:15 29.99085 -95.34717 107 ft 28 kts 89°
2026-05-07 02:15 29.99085 -95.34499 107 ft 26 kts 90°
2026-05-07 02:15 29.99078 -95.34360 107 ft 14 kts 116°
2026-05-07 02:15 29.98988 -95.34324 107 ft 16 kts 168°
2026-05-07 02:16 29.98905 -95.34276 107 ft 8 kts 160°
2026-05-07 02:16 29.98842 -95.34284 107 ft 7 kts 189°
2026-05-07 02:16 29.98815 -95.34285 107 ft 1 kts 179°
2026-05-07 02:16 29.98809 -95.34285 107 ft 0 kts 180°